STARLINK-4656 (53745 NORAD) Tracking and Keplerian Element Data

This shows tracking and keplerian element data for the satellite.

Feedback or suggestion? Click here.




ElementValue
Catalog53745
NameSTARLINK-4656
Epoch Orbit1199
Epoch Day325.33334491
Epoch Year2022
RAAN270.8013
Inclination53.2163
Eccentricity0.0001611
Argument of Perigee64.0118
Mean Anonmoly334.8715
Mean Motion15.08811196
Decay Rate0.00053759
L11 53745U 22107AX 22325.33334491 .00053759 00000+0 33729-2 0 9994
L22 53745 53.2163 270.8013 0001611 64.0118 334.8715 15.08811196 11997



Live tracking and technical data element details for STARLINK-4656 (NORAD 53745). STARLINK-4656 can be tracked NOW for your location showing map with azimuth and elevation plus other details from your city location.







IsCatalogInMostPopularTable: catalog: 53745, numindb: -1

Insert: records affected: 1


GetName: 53745 STARLINK-4656

Hit Count: inserted at: Thu, 08 Dec 2022 09:56:06 GMT